Theta_e
303 302 303 303 303 303 303 303 304 305 305 305 304 303 303 304 304 307 305 300 300 300 301 300 299 299 300 305 304 309 316 314 312 317 317 316 311 314 311 310 312 310 313 315 317 316 318
301 303 303 303 303 303 303 303 304 304 304 303 303 304 303 303 303 305 306 305 300 300 300 301 300 299 301 308 304 306 307 307 308 314 316 316 312 312 313 313 313 315 315 315 315 316 320
303 303 303 302 302 303 303 303 303 302 301 301 300 301 301 302 302 300 304 307 302 300 300 300 301 300 301 301 304 303 306 314 314 316 316 315 314 315 314 314 316 316 315 312 313 317 319
302 302 303 303 302 302 302 303 303 303 303 302 300 300 299 300 303 301 299 301 309 303 300 300 301 301 302 302 304 304 304 309 316 316 316 317 315 312 313 315 314 315 313 314 313 317 319
301 302 302 301 302 302 302 301 300 301 300 300 300 302 302 301 300 298 298 299 301 308 301 300 301 301 304 303 305 311 312 306 311 317 319 312 314 313 314 313 313 311 312 313 314 315 319
301 301 301 301 301 301 301 301 302 300 300 302 303 304 304 304 304 304 299 298 301 303 306 302 308 306 302 303 308 312 314 315 309 317 313 315 315 311 309 311 315 313 313 312 313 315 317
300 301 300 299 300 300 301 300 300 302 302 302 302 303 303 304 305 304 303 298 304 308 306 309 310 303 303 310 311 315 315 315 311 312 313 313 312 313 313 312 311 312 314 314 312 312 316
298 299 299 299 299 299 299 300 300 301 302 302 302 302 303 303 304 305 303 301 304 305 307 306 306 308 306 311 314 310 311 314 312 312 312 312 314 313 313 312 313 313 314 313 313 314 315
298 299 298 298 299 299 299 299 300 299 300 301 302 302 302 303 304 304 302 301 306 304 308 307 306 305 305 308 311 308 310 313 312 312 313 314 314 313 313 313 314 313 313 314 315 314 314
297 297 297 297 298 298 297 299 298 299 300 300 301 301 303 304 303 302 304 306 305 303 308 307 310 308 306 307 311 306 309 312 312 313 312 313 314 314 313 314 313 314 313 314 315 315 316
298 297 297 297 297 297 298 298 297 298 299 299 300 301 303 304 303 303 303 303 301 307 303 303 310 308 309 309 308 312 309 311 313 313 314 315 314 314 315 314 313 314 314 315 316 314 316
296 296 296 296 297 297 297 297 297 298 298 299 300 301 303 304 303 303 302 302 303 312 311 306 310 311 313 312 309 311 310 310 312 314 314 313 314 313 315 314 313 316 317 316 315 314 318
296 296 296 296 296 296 297 297 297 297 297 297 299 300 303 303 304 303 302 302 309 312 307 306 308 311 311 311 310 311 311 312 311 312 313 313 314 313 315 315 314 315 315 317 318 319 320
296 296 296 296 296 296 296 296 296 297 297 298 299 300 302 304 303 303 302 305 309 310 310 308 308 307 310 310 309 311 309 310 311 311 311 313 313 312 312 314 314 315 316 317 321 320 318
295 296 295 295 296 296 295 295 296 297 297 298 299 300 302 303 303 303 302 304 308 310 308 309 308 309 311 312 311 311 310 308 310 312 314 313 312 313 313 314 315 315 316 315 317 319 321
295 295 295 295 295 295 295 295 295 297 297 298 299 300 301 303 304 303 302 302 307 309 307 308 309 309 310 310 312 312 311 313 311 313 312 314 316 316 315 314 314 316 315 319 317 323 324
294 295 295 295 295 294 294 294 295 295 296 298 300 301 301 303 303 302 304 302 303 303 306 307 308 309 308 309 310 311 315 312 314 314 312 313 313 315 315 315 314 315 315 317 317 317 319
294 294 295 294 294 293 294 294 295 295 296 298 300 301 301 303 303 300 304 303 301 302 304 306 308 308 308 307 307 311 313 312 309 314 313 313 313 315 315 314 314 314 315 316 317 318 317
293 294 295 294 293 294 294 294 294 295 297 298 300 301 301 303 304 303 304 303 302 302 305 305 306 307 306 306 305 308 309 309 307 310 319 318 314 315 315 314 314 314 314 315 316 315 317
294 294 294 293 293 294 294 295 295 296 297 298 299 301 301 302 302 303 303 303 303 302 302 305 305 305 306 306 306 307 307 308 307 308 312 317 318 315 317 316 315 316 315 314 316 316 316
294 294 293 293 293 294 295 295 296 297 298 298 299 299 302 303 303 303 303 303 303 303 303 304 304 305 306 306 305 306 307 307 308 309 317 316 318 318 318 317 317 316 317 315 315 315 316
292 292 293 293 293 293 293 294 296 297 298 299 299 300 301 302 303 304 303 303 304 303 303 304 304 304 304 305 305 305 304 305 306 309 311 315 316 315 316 317 317 317 314 314 314 315 315
292 292 293 293 293 294 295 296 297 297 298 299 299 300 303 303 304 303 304 304 303 303 302 303 303 303 303 304 304 304 304 305 306 307 310 313 313 314 318 316 316 316 316 315 316 315 315
294 294 294 295 295 296 296 297 297 298 298 299 299 300 301 304 303 304 304 303 303 303 303 304 303 302 303 304 304 305 304 304 304 305 308 314 314 312 315 314 319 316 313 314 315 315 314
296 296 296 296 296 297 297 297 297 298 298 299 299 300 301 302 304 303 304 303 303 303 304 303 303 303 304 305 304 305 303 305 307 310 310 314 313 314 313 313 313 313 315 314 316 316 314
297 297 297 297 297 298 298 298 298 298 298 298 299 300 301 302 303 303 304 304 303 303 302 303 303 304 304 302 304 308 304 305 308 312 309 311 311 311 315 314 314 311 314 314 316 316 314
297 296 296 297 297 297 297 299 299 299 299 299 299 300 302 302 302 303 303 304 304 303 303 303 303 303 304 302 306 308 307 305 306 310 313 313 313 315 314 314 312 312 313 315 319 312 313
299 298 297 297 297 296 296 297 299 299 299 299 299 299 300 300 302 303 303 304 304 303 303 303 304 302 300 301 303 306 302 304 305 307 311 312 313 310 312 314 312 312 314 319 315 314 314
300 300 299 298 299 299 297 297 297 298 299 299 299 299 300 300 301 302 303 303 304 304 303 304 304 302 302 301 300 301 300 296 305 307 308 308 308 308 309 310 309 312 313 311 312 314 315
Wind_Speed
13 13 13 14 15 14 15 17 17 18 18 19 19 22 25 25 24 27 29 33 28 24 24 21 22 24 23 9 17 11 10 7 7 11 11 9 10 7 5 5 4 4 5 6 11 20 8
13 12 13 14 15 15 15 16 18 19 20 21 22 23 25 25 29 25 28 31 34 28 23 21 20 23 16 8 9 11 17 24 18 15 14 12 5 10 4 5 6 5 8 12 10 10 7
13 14 15 14 14 15 15 17 18 20 20 20 21 24 24 27 28 28 25 29 31 34 26 21 19 20 19 31 18 18 12 13 14 16 15 12 11 5 2 2 7 5 4 6 5 3 5
16 16 15 16 16 15 16 16 18 19 20 19 20 22 24 25 24 28 30 26 31 35 28 23 18 16 15 22 25 24 17 21 16 18 14 9 8 8 5 6 3 2 3 3 4 5 1
19 18 18 16 18 18 16 18 19 21 19 20 20 21 21 23 27 27 28 27 25 33 30 20 15 11 17 16 18 5 8 18 20 17 14 6 8 6 4 3 4 5 4 4 7 6 4
20 20 19 17 20 21 18 15 17 18 18 17 19 21 22 23 24 27 28 25 19 16 15 4 6 5 20 17 4 5 5 8 12 21 11 9 6 4 2 4 7 5 4 4 6 2 4
19 21 22 20 21 23 18 19 16 18 19 19 19 21 22 23 23 25 28 25 6 4 6 13 7 11 14 8 11 7 2 2 10 16 8 9 5 11 12 5 4 4 2 3 7 5 2
19 21 24 21 21 23 18 19 20 18 19 19 19 20 21 21 21 22 23 7 3 9 15 24 30 36 39 23 13 23 9 8 8 7 6 3 13 8 8 7 6 3 2 7 10 7 6
22 22 25 20 21 22 20 19 19 20 19 18 18 19 20 19 20 22 15 4 5 18 7 20 27 22 36 23 25 42 17 9 5 7 13 8 5 13 9 6 7 6 6 5 8 8 4
24 25 24 22 22 23 18 18 21 19 18 19 20 18 18 16 16 7 9 2 8 19 5 9 7 9 13 15 9 37 23 16 6 13 6 7 6 5 5 12 9 7 10 10 7 2 4
24 25 25 23 22 22 21 20 18 20 21 20 19 17 16 13 13 15 16 19 17 7 5 2 5 4 10 17 3 6 31 21 9 7 7 8 9 13 6 6 8 9 6 8 5 5 1
25 27 25 25 24 22 22 20 22 22 21 21 20 18 15 17 19 18 17 14 9 4 8 6 2 3 6 9 4 5 12 11 15 5 1 7 2 8 11 6 11 4 4 2 3 3 2
25 27 25 26 26 25 25 24 23 22 23 21 21 19 17 18 16 13 10 12 3 6 5 4 5 3 6 4 5 5 8 9 8 7 8 1 6 2 3 5 4 4 4 1 2 0 5
27 29 28 28 26 25 26 24 23 19 18 19 20 19 20 21 18 14 9 2 10 4 6 7 5 14 6 6 5 5 9 7 5 5 6 9 3 8 5 8 7 7 7 5 6 3 4
29 30 29 27 26 27 26 23 22 20 19 18 20 22 23 24 18 13 5 6 3 2 3 9 11 4 3 2 2 3 6 7 7 6 6 6 5 3 5 6 12 5 4 6 6 2 2
28 28 28 28 27 27 26 24 22 21 18 19 23 22 27 24 19 16 4 8 5 3 5 5 4 6 5 7 5 1 6 5 4 11 0 6 1 4 3 4 3 7 7 3 1 5 4
30 30 30 30 28 27 25 23 22 19 19 17 18 11 19 20 21 13 6 6 6 22 10 4 4 5 4 5 4 5 3 6 12 6 7 3 3 4 3 4 7 3 3 2 4 4 5
31 33 33 32 30 27 25 23 21 21 21 20 19 7 16 23 10 4 4 7 8 12 9 4 3 5 3 6 6 7 6 6 19 6 5 5 3 5 10 6 2 4 7 9 4 4 3
33 35 34 34 31 28 27 25 24 25 23 20 11 14 15 36 9 5 6 4 6 6 3 2 3 3 4 4 4 4 6 9 19 15 6 4 2 2 7 4 3 4 6 5 2 3 7
35 36 36 35 32 30 28 28 28 29 26 25 9 6 9 23 9 12 8 7 7 12 16 5 3 1 3 4 3 5 8 6 25 9 14 1 1 1 2 2 2 3 7 10 8 4 3
36 37 37 35 35 34 32 32 33 32 30 27 14 4 8 5 8 11 14 9 12 8 11 7 4 5 2 3 4 3 3 5 7 6 5 2 2 2 4 4 6 12 9 6 9 6 8
41 39 38 38 37 36 37 38 37 34 32 34 11 7 12 3 17 16 15 16 14 13 6 5 9 4 3 4 6 5 5 2 5 5 6 4 1 1 3 10 12 6 9 10 8 5 6
41 40 40 39 40 41 41 39 38 38 37 30 27 18 10 8 10 13 10 13 17 9 7 16 4 5 6 13 15 22 22 16 11 5 4 4 2 2 1 5 11 4 3 6 9 10 7
46 46 45 44 42 41 40 39 38 39 42 39 22 19 11 4 10 12 17 16 13 17 10 2 17 9 6 8 18 15 16 20 16 13 12 6 3 2 2 3 2 5 11 7 7 11 7
42 42 41 41 40 39 39 39 39 41 43 45 35 24 16 9 6 13 15 20 21 21 18 17 22 11 9 7 3 4 3 4 6 13 10 11 4 4 3 3 4 9 2 4 3 9 6
27 30 33 34 33 35 37 37 38 40 42 43 45 26 26 6 12 15 15 21 12 13 10 20 25 14 10 0 1 3 2 3 3 2 4 6 1 3 2 3 4 4 3 9 5 11 10
30 29 28 27 27 26 25 30 33 35 39 43 35 46 13 13 18 27 14 12 12 11 3 5 7 8 13 2 1 2 3 2 3 1 3 4 3 9 4 5 6 5 5 4 0 7 12
30 31 31 31 30 31 30 27 29 34 36 41 38 40 41 4 12 31 25 18 17 22 6 7 2 3 2 4 3 4 2 4 2 4 4 5 5 3 3 1 9 6 2 3 4 9 12
27 27 30 33 30 30 29 29 30 28 29 36 18 41 34 29 4 20 27 28 33 36 25 21 10 6 10 3 2 2 1 1 4 2 1 2 6 5 7 7 4 5 7 15 10 7 15
Wind_Direction
310 308 305 305 309 304 304 305 304 306 310 312 312 311 313 307 308 311 312 315 302 304 306 310 309 309 318 296 259 249 217 209 233 204 203 191 194 190 188 203 163 216 262 247 274 298 264
303 307 302 307 308 306 304 308 308 307 309 312 312 312 311 310 308 301 306 306 312 298 301 308 302 300 307 280 273 265 243 249 245 220 210 200 203 225 225 221 173 227 247 281 283 266 237
299 299 304 293 295 296 304 307 307 308 307 310 309 308 309 310 313 310 297 300 304 309 298 297 292 293 282 264 284 280 259 239 217 208 205 209 218 207 197 240 249 253 282 299 252 227 242
297 298 299 303 304 299 296 300 304 304 308 309 310 310 309 309 313 313 309 299 293 307 301 282 280 277 262 288 279 263 256 239 212 202 206 204 203 234 209 280 322 304 73 341 286 156 329
295 295 296 295 294 293 294 294 296 300 302 307 312 314 313 314 315 310 304 309 304 289 302 274 261 246 268 269 268 272 244 240 224 209 205 221 161 190 164 124 356 2 249 240 302 196 112
281 288 286 291 292 291 296 296 306 310 308 306 310 311 314 317 322 322 314 313 313 296 302 228 209 264 254 252 243 269 316 231 215 205 206 180 171 138 99 130 219 204 228 249 252 249 169
279 285 285 275 285 287 296 296 288 295 298 300 301 302 308 314 318 321 325 340 356 283 302 246 239 225 261 260 277 244 251 288 182 189 173 182 151 203 193 166 152 145 209 271 260 231 287
278 285 284 289 285 289 287 289 282 283 288 295 299 301 308 311 313 314 324 349 38 341 297 279 260 254 248 250 306 257 262 187 180 201 143 131 223 185 166 176 176 192 275 277 290 267 178
279 280 285 291 290 291 287 287 286 278 283 290 295 300 305 307 308 310 323 309 258 337 267 285 252 240 247 236 234 256 223 199 182 170 201 196 215 168 164 167 171 201 191 238 228 346 285
283 283 284 283 283 287 289 284 281 282 280 284 290 298 301 301 307 324 343 189 304 325 288 270 219 245 199 192 237 235 224 194 208 198 142 227 231 125 150 205 171 225 198 235 258 78 260
278 276 282 282 281 283 279 281 282 278 278 282 283 288 290 285 282 284 292 299 306 326 321 234 195 325 174 172 318 227 208 195 167 177 143 225 179 190 181 199 163 235 155 194 231 207 186
273 277 279 278 275 274 277 276 276 281 280 278 277 279 284 271 270 291 304 308 308 230 246 307 171 139 151 231 289 37 169 193 193 137 197 214 177 166 217 181 183 126 192 146 74 117 223
272 275 274 273 275 270 271 272 276 279 281 278 273 272 273 266 267 290 304 327 238 231 318 314 354 134 246 215 220 155 179 190 163 157 194 190 224 254 172 117 180 128 105 292 346 290 225
270 270 270 273 276 274 273 268 273 277 275 276 278 272 266 255 258 267 302 265 230 201 263 324 322 305 201 163 240 161 143 194 256 116 157 200 235 189 200 176 170 177 165 158 204 196 240
267 269 272 271 268 269 270 267 268 270 266 264 274 270 263 257 244 240 191 234 242 249 338 336 318 319 313 12 304 141 168 196 207 187 147 162 246 207 200 172 162 202 161 193 101 33 55
269 269 267 268 268 267 266 266 263 266 263 255 273 273 260 257 243 210 201 218 243 315 14 349 321 15 341 346 29 18 158 342 225 207 202 195 183 205 224 118 211 166 164 105 8 168 216
262 262 263 267 265 265 262 261 261 262 250 265 266 254 256 243 235 191 218 194 259 277 299 319 324 311 322 351 320 351 79 43 6 333 183 147 96 290 75 168 169 152 188 138 142 144 194
263 262 264 268 262 262 260 260 251 256 250 259 254 240 241 208 199 207 176 161 230 283 302 289 279 241 280 339 347 17 22 58 351 320 135 200 170 225 257 253 185 179 196 185 184 226 211
264 263 262 266 261 259 258 256 251 254 248 248 241 243 238 192 210 200 137 187 233 271 232 240 278 355 1 349 333 25 353 328 11 11 9 3 225 265 326 323 20 195 188 191 133 122 199
263 262 263 263 259 256 254 253 253 248 242 235 245 211 211 223 184 196 174 201 202 243 253 292 280 360 352 17 18 314 329 323 326 324 336 321 36 186 207 290 246 207 205 208 197 197 185
265 263 262 258 257 254 254 254 254 246 236 229 217 235 197 200 205 193 187 183 201 222 213 215 273 199 94 318 347 242 284 339 306 313 3 31 185 35 296 335 304 260 247 232 208 211 219
264 262 259 259 256 253 255 255 248 240 232 229 200 194 226 204 197 195 193 206 209 213 209 220 232 303 72 228 211 283 293 243 260 347 8 347 240 88 291 344 339 301 264 255 254 226 242
268 264 261 259 259 260 256 249 241 233 226 225 221 218 218 189 186 185 197 196 212 197 238 239 244 219 245 253 251 262 272 262 262 298 347 287 170 88 250 352 332 0 351 278 265 247 200
267 265 263 261 259 255 251 245 239 232 225 223 210 201 217 219 192 196 201 202 201 209 217 193 229 217 244 294 318 280 263 258 253 262 221 274 128 93 221 40 276 236 318 243 269 279 274
265 262 260 256 254 252 248 242 235 230 224 222 216 196 197 220 209 189 194 200 210 217 221 232 241 241 230 319 311 313 332 323 247 223 222 209 158 165 165 193 295 302 56 22 59 301 289
270 260 255 251 246 244 246 238 230 227 222 221 219 213 197 209 212 190 192 186 192 207 225 240 250 253 258 106 155 227 250 239 305 319 211 139 135 150 164 187 242 250 354 346 329 283 3
270 264 256 249 245 240 242 229 224 221 218 216 215 210 186 205 215 188 186 188 174 170 166 159 232 218 214 161 231 251 259 254 285 192 166 171 181 223 205 243 282 232 273 313 195 289 327
269 261 253 247 244 240 236 232 223 219 217 212 211 215 212 197 186 197 201 183 177 183 165 151 139 229 98 156 182 188 208 238 218 181 174 177 172 202 121 162 273 199 100 175 227 295 307
265 262 252 242 239 235 228 222 220 214 209 206 204 211 212 214 232 196 207 211 203 200 189 168 204 161 168 136 198 159 199 47 165 236 7 244 183 186 179 210 262 216 236 287 274 278 295